DW2989 Weather Reports


time (UTC)temp
F
wind
direction
speed
knots
gust
knots
rain 1hr
in
rain 24hr
in
rain mn
in
humidity
%
barometer
mb
20260505213016 35 171 0.9 4.3 0.00 0.03 0.02 89 1009.5
20260505211514 35 169 4.3 9.6 0.00 0.03 0.02 83 1009.4
20260505210012 38 171 3.5 6.1 0.00 0.03 0.02 73 1009.3
20260505204511 38 162 0.0 5.2 0.00 0.03 0.02 71 1009.8
20260505203010 39 163 2.6 13.0 0.00 0.03 0.02 67 1009.7
20260505201539 40 132 4.3 15.6 0.00 0.03 0.02 48 1009.2
20260505200038 41 129 4.3 13.0 0.00 0.03 0.02 44 1009.1
20260505194541 41 118 10.4 15.6 0.00 0.03 0.02 43 1008.8
20260505193041 40 115 8.7 15.6 0.00 0.03 0.02 46 1009.0
20260505191549 40 78 8.7 14.8 0.00 0.03 0.02 48 1009.0
20260505190032 40 120 7.0 13.9 0.00 0.03 0.02 51 1009.0
20260505184532 40 109 9.6 15.6 0.00 0.03 0.02 53 1009.1
20260505183031 39 85 9.6 14.8 0.00 0.03 0.02 53 1009.1
20260505181529 39 101 7.8 14.8 0.00 0.03 0.02 54 1009.1
20260505180042 39 101 9.6 16.5 0.00 0.03 0.02 53 1009.1
20260505174535 39 98 9.6 13.9 0.00 0.03 0.02 53 1009.1
20260505173025 39 116 10.4 15.6 0.00 0.03 0.02 54 1009.1
20260505171531 39 109 10.4 16.5 0.00 0.03 0.02 54 1009.0
20260505170028 38 136 11.3 17.4 0.00 0.03 0.02 55 1009.0
20260505164520 38 112 10.4 17.4 0.00 0.03 0.02 57 1009.0
20260505163022 37 107 12.2 17.4 0.00 0.03 0.02 57 1008.9
20260505161519 37 116 11.3 16.5 0.00 0.03 0.02 57 1008.8
20260505153019 36 115 12.2 16.5 0.02 0.03 0.02 64 1008.8
20260505151514 35 95 13.9 19.1 0.02 0.03 0.02 65 1008.7
20260505124530 33 117 10.4 14.8 0.00 0.01 0.00 87 1008.6
20260505123050 33 132 7.0 12.2 0.00 0.01 0.00 87 1008.5
20260505121529 33 119 8.7 12.2 0.00 0.01 0.00 88 1008.5
20260505120029 33 111 10.4 15.6 0.00 0.01 0.00 89 1008.7
20260505114524 33 115 9.6 13.9 0.00 0.01 0.00 91 1008.4
20260505113032 33 118 7.8 11.3 0.00 0.01 0.00 91 1008.5
20260505111536 33 132 7.0 10.4 0.00 0.01 0.00 91 1008.4
20260505101508 35 122 9.6 13.9 0.00 0.01 0.00 84 1008.1
20260505100005 36 126 9.6 16.5 0.00 0.01 0.00 82 1007.9
20260505094502 36 134 9.6 14.8 0.00 0.01 0.00 82 1007.7
20260505093100 36 118 10.4 14.8 0.00 0.01 0.00 82 1007.7
20260505091558 37 97 11.3 15.6 0.00 0.01 0.00 80 1007.7
20260505090058 37 110 9.6 12.2 0.00 0.01 0.00 77 1007.9
20260505084551 38 105 8.7 13.0 0.00 0.01 0.00 76 1008.0
20260505083100 38 101 9.6 13.9 0.00 0.01 0.00 73 1008.0
20260505081551 39 114 8.7 13.0 0.00 0.01 0.00 71 1008.1
20260505080040 40 89 8.7 13.0 0.00 0.01 0.00 69 1008.2
20260505074541 40 115 7.8 11.3 0.00 0.01 0.00 67 1008.0
20260505073033 40 119 7.0 9.6 0.00 0.01 0.00 66 1008.0
20260505071632 40 123 6.1 8.7 0.00 0.01 0.00 66 1008.2
20260505070038 40 135 6.1 9.6 0.00 0.01 0.00 65 1008.3
20260505064549 40 109 7.0 11.3 0.00 0.01 0.00 65 1008.2
20260505063026 40 116 8.7 12.2 0.00 0.01 0.00 65 1008.1
20260505061535 40 109 9.6 13.9 0.00 0.01 0.00 65 1008.1
20260505060026 41 123 9.6 13.9 0.00 0.01 0.00 65 1007.7
20260505054521 42 133 7.8 14.8 0.00 0.01 0.00 62 1007.6
20260505053017 42 147 10.4 15.6 0.00 0.01 0.00 59 1007.5
20260505051513 43 131 7.0 13.9 0.00 0.01 0.00 59 1007.4
20260505041502 44 144 3.5 10.4 0.00 0.01 0.00 58 1007.1
20260505040001 44 150 5.2 13.0 0.00 0.01 0.00 58 1007.1
20260505034604 43 133 9.6 14.8 0.00 0.01 0.00 59 1006.8
20260505033057 43 132 9.6 13.0 0.00 0.01 0.00 60 1006.5
20260505031601 44 128 9.6 17.4 0.00 0.01 0.00 58 1005.7
20260505030045 45 134 11.3 19.1 0.00 0.01 0.00 56 1005.3
20260505024546 47 142 11.3 19.1 0.00 0.01 0.00 56 1004.9
20260505023045 48 130 10.4 19.1 0.00 0.01 0.00 54 1004.8
20260505021542 49 137 13.9 21.7 0.00 0.01 0.00 54 1004.4
20260505020031 51 134 14.8 21.7 0.00 0.01 0.00 52 1003.9
20260505014527 52 139 13.9 20.9 0.00 0.01 0.00 47 1003.6
20260505013023 53 134 12.2 19.1 0.00 0.01 0.00 46 1003.2
20260505011516 53 164 4.3 13.9 0.00 0.01 0.00 46 1002.9
20260505010012 54 162 5.2 13.0 0.00 0.01 0.00 45 1002.7
20260505004539 55 150 5.2 13.0 0.00 0.01 0.00 45 1002.3
20260505003036 56 175 4.3 12.2 0.00 0.01 0.00 46 1002.1
20260505001540 57 153 4.3 13.0 0.00 0.01 0.00 46 1002.0
20260505000039 57 163 6.1 13.0 0.00 0.01 0.00 46 1002.0
20260504234530 57 138 7.0 15.6 0.00 0.01 0.00 45 1002.0
20260504233028 58 142 4.3 11.3 0.00 0.01 0.00 46 1001.9
20260504231603 58 155 4.3 13.9 0.00 0.01 0.00 46 1001.7
20260504230055 59 128 4.3 10.4 0.01 0.01 0.01 45 1001.7
20260504224548 57 128 5.2 16.5 0.01 0.01 0.01 52 1001.7
20260504223048 56 117 11.3 20.0 0.01 0.01 0.01 61 1001.5
20260504221556 59 311 4.3 15.6 0.01 0.01 0.01 53 1002.0
20260504220045 60 107 0.0 7.0 0.00 0.00 0.00 33 1001.6
20260504214544 61 149 1.7 9.6 0.00 0.00 0.00 31 1001.2